2023/02/20 00:00:00,95.5, 0.9
2023/02/20 00:10:00,95.5, 0.8
2023/02/20 00:20:00,95.5, 0.7
2023/02/20 00:30:00,95.5, 0.8
2023/02/20 00:40:00,95.5, 0.7
2023/02/20 00:50:00,95.5, 0.8
2023/02/20 01:00:00,95.4, 1.1
2023/02/20 01:10:00,95.5, 0.7
2023/02/20 01:20:00,95.5, 0.6
2023/02/20 01:30:00,95.6, 0.4
2023/02/20 01:40:00,95.6, 0.4
2023/02/20 01:50:00,95.5, 0.1
2023/02/20 02:00:00,95.5, 0.4
2023/02/20 02:10:00,95.5, 0.0
2023/02/20 02:20:00,95.5, 0.1
2023/02/20 02:30:00,95.6, 0.5
2023/02/20 02:40:00,95.6, 0.4
2023/02/20 02:50:00,95.6, 0.5
2023/02/20 03:00:00,95.7, 0.4
2023/02/20 03:10:00,96.0, 0.4
2023/02/20 03:20:00,96.0, 0.4
2023/02/20 03:30:00,96.0, 0.3
2023/02/20 03:40:00,96.0, 0.4
2023/02/20 03:50:00,96.0, 0.2
2023/02/20 04:00:00,96.0, 0.2
2023/02/20 04:10:00,95.9, 0.1
2023/02/20 04:20:00,95.9, 1.0
2023/02/20 04:30:00,96.1, 0.2
2023/02/20 04:40:00,96.2, 0.4
2023/02/20 04:50:00,96.2, 0.1
2023/02/20 05:00:00,96.2, 0.0
2023/02/20 05:10:00,96.1, 0.0
2023/02/20 05:20:00,96.4, 0.1
2023/02/20 05:30:00,96.7, 0.3
2023/02/20 05:40:00,96.8, 0.1
2023/02/20 05:50:00,96.9, 0.2
2023/02/20 06:00:00,97.2, 0.0
2023/02/20 06:10:00,97.2, 0.0
2023/02/20 06:20:00,97.2,-0.1
2023/02/20 06:30:00,97.7,-0.3
2023/02/20 06:40:00,97.8, 0.1
2023/02/20 06:50:00,97.9,-0.1
2023/02/20 07:00:00,98.1,-0.2
2023/02/20 07:10:00,98.2, 0.0
2023/02/20 07:20:00,98.4,-0.1
2023/02/20 07:30:00,98.8, 0.0
2023/02/20 07:40:00,98.8, 0.1
2023/02/20 07:50:00,99.2, 0.1
2023/02/20 08:00:00,99.3, 0.1
2023/02/20 08:10:00,99.6, 0.2
2023/02/20 08:20:00,100.0,-0.1
2023/02/20 08:30:00,100.3, 0.1
2023/02/20 08:40:00,100.6, 0.2
2023/02/20 08:50:00,100.6, 0.2
2023/02/20 09:00:00,100.6, 0.2
2023/02/20 09:10:00,100.8, 0.5
2023/02/20 09:20:00,101.0, 0.7
2023/02/20 09:30:00,101.0, 0.7
2023/02/20 09:40:00,100.8, 1.1
2023/02/20 09:50:00,100.9, 1.6
2023/02/20 10:00:00,100.7, 1.7
2023/02/20 10:10:00,100.6, 2.2
2023/02/20 10:20:00,100.4, 2.6
2023/02/20 10:30:00,100.4, 1.2
2023/02/20 10:40:00,100.1, 2.6
2023/02/20 10:50:00,100.2, 2.2
2023/02/20 11:00:00,100.4, 1.1
2023/02/20 11:10:00,100.4, 4.5
2023/02/20 11:20:00,100.2, 5.5
2023/02/20 11:30:00,99.3, 2.8
2023/02/20 11:40:00,99.1, 3.4
2023/02/20 11:50:00,99.1, 2.4
2023/02/20 12:00:00,99.1, 2.5
2023/02/20 12:10:00,99.0, 2.6
2023/02/20 12:20:00,99.0, 2.4
2023/02/20 12:30:00,99.0, 1.8
2023/02/20 12:40:00,99.1, 1.1
2023/02/20 12:50:00,99.0, 1.6
2023/02/20 13:00:00,98.9, 1.7
2023/02/20 13:10:00,99.1, 2.4
2023/02/20 13:20:00,99.2, 2.6
2023/02/20 13:30:00,99.4, 1.2
2023/02/20 13:40:00,99.8, 0.8
2023/02/20 13:50:00,100.3, 1.9
2023/02/20 14:00:00,100.4, 2.8
2023/02/20 14:10:00,100.3, 2.5
2023/02/20 14:20:00,100.9, 1.8
2023/02/20 14:30:00,100.9, 1.5
2023/02/20 14:40:00,101.1, 0.6
2023/02/20 14:50:00,101.6, 0.2
2023/02/20 15:00:00,101.7, 1.5
2023/02/20 15:10:00,101.9, 0.7
2023/02/20 15:20:00,102.0, 0.4
2023/02/20 15:30:00,102.1,-0.4
2023/02/20 15:40:00,102.7,-0.7
2023/02/20 15:50:00,103.0,-0.3
2023/02/20 16:00:00,103.4, 0.0
2023/02/20 16:10:00,103.4,-0.2
2023/02/20 16:20:00,103.4,-0.4
2023/02/20 16:30:00,103.1,-1.1
2023/02/20 16:40:00,103.4,-0.7
2023/02/20 16:50:00,104.1,-0.9
2023/02/20 17:00:00,105.0,-1.1
2023/02/20 17:10:00,106.0,-1.3
2023/02/20 17:20:00,106.2,-1.4
2023/02/20 17:30:00,106.4,-1.5
2023/02/20 17:40:00,106.5,-1.5
2023/02/20 17:50:00,106.7,-1.7
2023/02/20 18:00:00,106.7,-2.2
2023/02/20 18:10:00,106.8,-1.9
2023/02/20 18:20:00,107.8,-2.2
2023/02/20 18:30:00,108.8,-2.4
2023/02/20 18:40:00,109.8,-2.5
2023/02/20 18:50:00,110.6,-2.4
2023/02/20 19:00:00,111.0,-2.3
2023/02/20 19:10:00,111.0,-2.5
2023/02/20 19:20:00,112.6,-2.6
2023/02/20 19:30:00,112.8,-2.6
2023/02/20 19:40:00,114.0,-2.5
2023/02/20 19:50:00,115.0,-2.8
2023/02/20 20:00:00,116.2,-3.0
2023/02/20 20:10:00,117.5,-2.8
2023/02/20 20:20:00,118.7,-3.2
2023/02/20 20:30:00,118.9,-2.4
2023/02/20 20:40:00,118.5,-2.9
2023/02/20 20:50:00,118.5,-3.1
2023/02/20 21:20:00,59.3,-3.2
2023/02/20 21:30:00,119.1,-3.2
2023/02/20 21:40:00,119.2,-3.3
2023/02/20 21:50:00,119.0,-3.0
2023/02/20 22:00:00,118.9,-3.2
2023/02/20 22:10:00,118.6,-3.4
2023/02/20 22:20:00,118.8,-3.3
2023/02/20 22:30:00,119.2,-3.4
2023/02/20 22:40:00,118.9,-3.4
2023/02/20 22:50:00,119.7,-3.1
2023/02/20 23:00:00,120.1,-3.4
2023/02/20 23:10:00,119.5,-3.2
2023/02/20 23:20:00,119.5,-3.4
2023/02/20 23:30:00,119.4,-3.5
2023/02/20 23:40:00,119.9,-3.5
2023/02/20 23:50:00,120.3,-3.5
